Location: Unspecified
(22.6800°N, 112.2000°E)
Time: 11:04:43
(UTC+08:00)

Transit 2A - Pass Details

Date: 13 August 2021
Orbit: 595 x 963 km, 66.7° (Epoch: 16 September)

Event Time Altitude Azimuth Distance (km) Brightness Sun altitude
Rises 13:38:10 0° 335° (NNW) 3,446 9.4 73.2°
Reaches altitude 10° 13:40:34 10° 334° (NNW) 2,552 8.9 72.7°
Maximum altitude 13:46:34 79° 249° (WSW) 953 9.3 71.5°
Drops below altitude 10° 13:52:54 10° 163° (SSE) 2,683 9.0 70.1°
Sets 13:55:29 0° 162° (SSE) 3,633 9.5 69.6°
